E23XBQ-1 Weather Reports


time (UTC)temp
F
wind
direction
speed
knots
gust
knots
rain 1hr
in
rain 24hr
in
rain mn
in
humidity
%
barometer
mb
20260509031943 87 0 0.0 0.0 0.00 0.00 0.00 76 976.0
20260509030918 88 0 0.0 0.0 0.00 0.00 0.00 73 976.0
20260509025854 85 0 0.0 0.0 0.00 0.00 0.00 83 976.0
20260509024829 84 0 0.0 0.0 0.00 0.00 0.00 86 976.0
20260509023805 84 0 0.0 0.0 0.00 0.00 0.00 86 976.0
20260509022741 83 0 0.0 0.0 0.00 0.00 0.00 93 976.0
20260509021717 82 0 0.0 0.0 0.00 0.00 0.00 96 976.0
20260509020652 82 0 0.0 0.0 0.00 0.00 0.00 99 976.0
20260509015628 82 0 0.0 0.0 0.00 0.00 0.00 99 976.0
20260509014604 80 0 0.0 0.0 0.00 0.00 0.00 99 976.0
20260509013536 80 0 0.0 0.0 0.00 0.00 0.00 99 976.0
20260509013422 80 0 0.0 0.0 0.00 0.00 0.00 99 976.0
20260509012357 79 0 0.0 0.0 0.00 0.00 0.00 99 976.0
20260509011333 79 0 0.0 0.0 0.00 0.00 0.00 99 976.0
20260509010308 79 0 0.0 0.0 0.00 0.00 0.00 99 976.0
20260509005245 79 0 0.0 0.0 0.00 0.00 0.00 99 976.0
20260509004219 78 0 0.0 0.0 0.00 0.00 0.00 99 976.0
20260509003154 78 0 0.0 0.0 0.00 0.00 0.00 99 975.0
20260509002129 78 0 0.0 0.0 0.00 0.00 0.00 99 975.0
20260509001114 78 0 0.0 0.0 0.00 0.00 0.00 99 97.5
20260509001105 78 0 0.0 0.0 0.00 0.00 0.00 99 975.0
20260509000040 77 0 0.0 0.0 0.00 0.00 0.00 99 975.0
20260508235016 77 0 0.0 0.0 0.00 0.00 0.00 99 975.0
20260508234341 77 0 0.0 0.0 0.00 0.00 0.00 99 975.0
20260508233315 77 0 0.0 0.0 0.00 0.00 0.00 99 975.0
20260508232502 77 0 0.0 0.0 0.00 0.00 0.00 99 974.0
20260508231438 77 0 0.0 0.0 0.00 0.00 0.00 99 974.0
20260508230413 77 0 0.0 0.0 0.00 0.00 0.00 99 974.0
20260508225348 77 0 0.0 0.0 0.00 0.00 0.00 99 974.0
20260508224324 77 0 0.0 0.0 0.00 0.00 0.00 99 974.0
20260508223259 77 0 0.0 0.0 0.00 0.00 0.00 99 974.0
20260508222235 77 0 0.0 0.0 0.00 0.00 0.00 99 974.0
20260508221224 77 0 0.0 0.0 0.00 0.00 0.00 99 97.4
20260508221210 77 0 0.0 0.0 0.00 0.00 0.00 99 974.0
20260508220140 77 0 0.0 0.0 0.00 0.00 0.00 99 974.0
20260508215113 77 0 0.0 0.0 0.00 0.00 0.00 99 974.0
20260508214049 77 0 0.0 0.0 0.00 0.00 0.00 99 974.0
20260508213024 77 0 0.0 0.0 0.00 0.00 0.00 99 974.0
20260508212000 77 0 0.0 0.0 0.00 0.00 0.00 99 973.0
20260508210935 78 0 0.0 0.0 0.00 0.00 0.00 99 973.0
20260508205910 78 0 0.0 0.0 0.00 0.00 0.00 99 973.0
20260508204845 78 0 0.0 0.0 0.00 0.00 0.00 99 973.0
20260508203821 78 0 0.0 0.0 0.00 0.00 0.00 99 973.0
20260508202756 79 0 0.0 0.0 0.00 0.00 0.00 99 973.0
20260508201732 79 0 0.0 0.0 0.00 0.00 0.00 99 973.0
20260508200708 78 0 0.0 0.0 0.00 0.00 0.00 99 973.0
20260508195644 79 0 0.0 0.0 0.00 0.00 0.00 99 973.0
20260508194619 80 0 0.0 0.0 0.00 0.00 0.00 94 973.0
20260508193555 80 0 0.0 0.0 0.00 0.00 0.00 93 973.0
20260508192531 80 0 0.0 0.0 0.00 0.00 0.00 94 973.0
20260508191506 80 0 0.0 0.0 0.00 0.00 0.00 98 973.0
20260508190442 80 0 0.0 0.0 0.00 0.00 0.00 92 973.0
20260508185423 81 0 0.0 0.0 0.00 0.00 0.00
20260508185417 81 0 0.0 0.0 0.00 0.00 0.00 88 973.0
20260508184352 80 0 0.0 0.0 0.00 0.00 0.00 86 973.0
20260508183328 80 0 0.0 0.0 0.00 0.00 0.00 86 973.0
20260508182312 80 0 0.0 0.0 0.00 0.00 0.00 87 973.0
20260508182306 80 0 0.0 0.0 0.00 0.00 0.00 87 973.0
20260508181240 80 0 0.0 0.0 0.00 0.00 0.00 88 973.0
20260508180215 80 0 0.0 0.0 0.00 0.00 0.00 86 973.0
20260508175150 81 0 0.0 0.0 0.00 0.00 0.00 85 973.0
20260508174126 81 0 0.0 0.0 0.00 0.00 0.00 85 973.0
20260508173101 81 0 0.0 0.0 0.00 0.00 0.00 85 973.0
20260508172036 82 0 0.0 0.0 0.00 0.00 0.00 82 973.0
20260508171628 82 0 0.0 0.0 0.00 0.00 0.00 83 973.0
20260508170603 82 0 0.0 0.0 0.00 0.00 0.00 82 973.0
20260508165538 82 0 0.0 0.0 0.00 0.00 0.00 82 973.0
20260508164513 81 0 0.0 0.0 0.00 0.00 0.00 84 973.0
20260508163448 80 0 0.0 0.0 0.00 0.00 0.00 88 973.0
20260508162423 80 0 0.0 0.0 0.00 0.00 0.00 95 974.0
20260508161359 80 0 0.0 0.0 0.00 0.00 0.00 99 974.0
20260508160334 80 0 0.0 0.0 0.00 0.00 0.00 99 974.0
20260508155310 80 0 0.0 0.0 0.00 0.00 0.00 94 974.0
20260508154245 79 0 0.0 0.0 0.00 0.00 0.00 93 973.0
20260508153243 79 0 0.0 0.0 0.00 0.00 0.00 92 973.0
20260508153220 79 0 0.0 0.0 0.00 0.00 0.00 92 973.0
20260508152200 80 0 0.0 0.0 0.00 0.00 0.00 88 973.0
20260508152155 80 0 0.0 0.0 0.00 0.00 0.00 88 973.0
20260508151130 80 0 0.0 0.0 0.00 0.00 0.00 93 973.0
20260508150106 80 0 0.0 0.0 0.00 0.00 0.00 89 973.0
20260508145041 80 0 0.0 0.0 0.00 0.00 0.00 89 973.0
20260508144016 80 0 0.0 0.0 0.00 0.00 0.00 86 972.0
20260508143003 80 0 0.0 0.0 0.00 0.00 0.00 91 972.0
20260508142952 80 0 0.0 0.0 0.00 0.00 0.00 91 972.0
20260508141933 80 0 0.0 0.0 0.00 0.00 0.00 84 972.0
20260508141927 80 0 0.0 0.0 0.00 0.00 0.00 84 972.0
20260508140903 81 0 0.0 0.0 0.00 0.00 0.00 84 972.0
20260508135839 81 0 0.0 0.0 0.00 0.00 0.00 79 972.0
20260508134814 81 0 0.0 0.0 0.00 0.00 0.00 74 971.0
20260508133750 82 0 0.0 0.0 0.00 0.00 0.00 69 971.0
20260508132726 83 0 0.0 0.0 0.00 0.00 0.00 69 971.0
20260508131657 83 0 0.0 0.0 0.00 0.00 0.00 62 971.0
20260508130632 84 0 0.0 0.0 0.00 0.00 0.00 56 971.0
20260508125607 84 0 0.0 0.0 0.00 0.00 0.00 55 970.0
20260508124542 84 0 0.0 0.0 0.00 0.00 0.00 54 970.0
20260508123518 85 0 0.0 0.0 0.00 0.00 0.00 51 970.0
20260508122454 85 0 0.0 0.0 0.00 0.00 0.00 51 970.0
20260508121429 85 0 0.0 0.0 0.00 0.00 0.00 51 970.0
20260508120405 85 0 0.0 0.0 0.00 0.00 0.00 51 970.0
20260508115341 85 0 0.0 0.0 0.00 0.00 0.00 52 970.0
20260508114317 86 0 0.0 0.0 0.00 0.00 0.00 53 970.0
20260508113252 86 0 0.0 0.0 0.00 0.00 0.00 54 970.0
20260508112228 88 0 0.0 0.0 0.00 0.00 0.00 60 969.0
20260508111203 89 0 0.0 0.0 0.00 0.00 0.00 61 969.0
20260508110138 90 0 0.0 0.0 0.00 0.00 0.00 69 969.0
20260508105114 90 0 0.0 0.0 0.00 0.00 0.00 66 969.0
20260508104048 91 0 0.0 0.0 0.00 0.00 0.00 64 968.0
20260508103024 90 0 0.0 0.0 0.00 0.00 0.00 75 968.0
20260508101959 91 0 0.0 0.0 0.00 0.00 0.00 68 968.0
20260508100935 92 0 0.0 0.0 0.00 0.00 0.00 58 968.0
20260508095910 93 0 0.0 0.0 0.00 0.00 0.00 55 968.0
20260508094851 0 0 0.0 0.0 0.00 0.00 0.00
20260508094846 95 0 0.0 0.0 0.00 0.00 0.00 48 968.0
20260508093822 96 0 0.0 0.0 0.00 0.00 0.00 46 968.0
20260508093429 96 0 0.0 0.0 0.00 0.00 0.00 46 968.0
20260508092404 96 0 0.0 0.0 0.00 0.00 0.00 46 968.0
20260508091344 96 0 0.0 0.0 0.00 0.00 0.00 45 968.0
20260508091340 96 0 0.0 0.0 0.00 0.00 0.00 45 968.0
20260508090316 96 0 0.0 0.0 0.00 0.00 0.00 46 968.0
20260508085250 97 0 0.0 0.0 0.00 0.00 0.00 45 968.0
20260508084225 98 0 0.0 0.0 0.00 0.00 0.00 41 968.0
20260508083201 98 0 0.0 0.0 0.00 0.00 0.00 45 969.0
20260508082137 98 0 0.0 0.0 0.00 0.00 0.00 44 969.0
20260508081113 96 0 0.0 0.0 0.00 0.00 0.00 44 969.0
20260508080048 98 0 0.0 0.0 0.00 0.00 0.00 45 969.0
20260508075024 98 0 0.0 0.0 0.00 0.00 0.00 45 969.0
20260508074000 98 0 0.0 0.0 0.00 0.00 0.00 45 970.0
20260508072935 98 0 0.0 0.0 0.00 0.00 0.00 46 970.0
20260508071911 99 0 0.0 0.0 0.00 0.00 0.00 47 970.0
20260508070846 97 0 0.0 0.0 0.00 0.00 0.00 51 970.0
20260508065822 96 0 0.0 0.0 0.00 0.00 0.00 51 971.0
20260508064758 95 0 0.0 0.0 0.00 0.00 0.00 52 971.0
20260508064139 94 0 0.0 0.0 0.00 0.00 0.00 53 971.0
20260508063115 93 0 0.0 0.0 0.00 0.00 0.00 55 971.0
20260508062050 93 0 0.0 0.0 0.00 0.00 0.00 60 972.0
20260508061026 92 0 0.0 0.0 0.00 0.00 0.00 57 972.0
20260508060002 91 0 0.0 0.0 0.00 0.00 0.00 66 972.0
20260508054937 91 0 0.0 0.0 0.00 0.00 0.00 67 972.0
20260508053913 90 0 0.0 0.0 0.00 0.00 0.00 69 973.0
20260508052848 92 0 0.0 0.0 0.00 0.00 0.00 65 973.0
20260508051824 91 0 0.0 0.0 0.00 0.00 0.00 66 973.0
20260508050800 91 0 0.0 0.0 0.00 0.00 0.00 66 973.0
20260508045735 91 0 0.0 0.0 0.00 0.00 0.00 67 974.0
20260508044709 91 0 0.0 0.0 0.00 0.00 0.00 64 974.0
20260508043644 90 0 0.0 0.0 0.00 0.00 0.00 70 974.0
20260508042619 90 0 0.0 0.0 0.00 0.00 0.00 68 974.0
20260508041554 90 0 0.0 0.0 0.00 0.00 0.00 68 974.0
20260508040530 89 0 0.0 0.0 0.00 0.00 0.00 72 974.0
20260508035505 89 0 0.0 0.0 0.00 0.00 0.00 70 974.0
20260508034440 89 0 0.0 0.0 0.00 0.00 0.00 68 974.0
20260508033349 88 0 0.0 0.0 0.00 0.00 0.00 71 975.0